| time (UTC) | temp F | wind direction | speed MPH | gust MPH | rain 1hr in | rain 24hr in | rain mn in | humidity % | barometer mb |
| 20260506123510 | 67 | 277 | 1.0 | 7.0 | 0.00 | 0.00 | 0.00 | 84 | 1015.8 |
| 20260506123006 | 67 | 235 | 1.0 | 6.0 | 0.00 | 0.00 | 0.00 | 84 | 1015.8 |
| 20260506122505 | 67 | 244 | 1.0 | 6.0 | 0.00 | 0.00 | 0.00 | 85 | 1015.7 |
| 20260506122008 | 67 | 226 | 0.0 | 7.0 | 0.00 | 0.00 | 0.00 | 85 | 1015.7 |
| 20260506121505 | 66 | 232 | 1.0 | 5.0 | 0.00 | 0.00 | 0.00 | 85 | 1015.7 |
| 20260506121004 | 66 | 232 | 1.0 | 4.0 | 0.00 | 0.00 | 0.00 | 85 | 1015.6 |
| 20260506120503 | 66 | 203 | 0.0 | 6.0 | 0.00 | 0.00 | 0.00 | 86 | 1015.6 |
| 20260506120001 | 65 | 268 | 1.0 | 6.0 | 0.00 | 0.00 | 0.00 | 87 | 1015.4 |
| 20260506115601 | 65 | 248 | 0.0 | 6.0 | 0.00 | 0.00 | 0.00 | 87 | 1015.4 |
| 20260506115100 | 65 | 232 | 1.0 | 6.0 | 0.00 | 0.00 | 0.00 | 87 | 1015.1 |
| 20260506114559 | 64 | 209 | 1.0 | 6.0 | 0.00 | 0.00 | 0.00 | 87 | 1015.3 |
| 20260506114100 | 64 | 229 | 1.0 | 6.0 | 0.00 | 0.00 | 0.00 | 88 | 1015.2 |
| 20260506113600 | 63 | 217 | 0.0 | 6.0 | 0.00 | 0.00 | 0.00 | 88 | 1015.1 |
| 20260506113101 | 63 | 223 | 1.0 | 6.0 | 0.00 | 0.00 | 0.00 | 88 | 1015.2 |
| 20260506112600 | 63 | 223 | 0.0 | 4.0 | 0.00 | 0.00 | 0.00 | 88 | 1015.2 |
| 20260506112058 | 62 | 232 | 1.0 | 5.0 | 0.00 | 0.00 | 0.00 | 88 | 1015.1 |
| 20260506111600 | 62 | 214 | 1.0 | 6.0 | 0.00 | 0.00 | 0.00 | 88 | 1015.1 |
| 20260506111100 | 62 | 205 | 2.0 | 6.0 | 0.00 | 0.00 | 0.00 | 88 | 1015.0 |
| 20260506110557 | 62 | 226 | 1.0 | 5.0 | 0.00 | 0.00 | 0.00 | 88 | 1014.9 |
| 20260506110058 | 62 | 224 | 1.0 | 5.0 | 0.00 | 0.00 | 0.00 | 88 | 1015.0 |
| 20260506105557 | 62 | 221 | 2.0 | 5.0 | 0.00 | 0.00 | 0.00 | 88 | 1015.1 |
| 20260506105100 | 61 | 201 | 1.0 | 4.0 | 0.00 | 0.00 | 0.00 | 89 | 1015.1 |
| 20260506104600 | 61 | 226 | 1.0 | 4.0 | 0.00 | 0.00 | 0.00 | 88 | 1015.0 |
| 20260506104057 | 61 | 216 | 0.0 | 5.0 | 0.00 | 0.00 | 0.00 | 88 | 1014.9 |
| 20260506103556 | 61 | 210 | 2.0 | 5.0 | 0.00 | 0.00 | 0.00 | 88 | 1015.0 |
| 20260506103056 | 61 | 215 | 0.0 | 0.0 | 0.00 | 0.00 | 0.00 | 88 | 1015.0 |
| 20260506102556 | 61 | 225 | 0.0 | 0.0 | 0.00 | 0.00 | 0.00 | 88 | 1015.1 |
| 20260506102056 | 61 | 223 | 0.0 | 0.0 | 0.00 | 0.00 | 0.00 | 88 | 1015.0 |
| 20260506101555 | 61 | 222 | 0.0 | 0.0 | 0.00 | 0.00 | 0.00 | 87 | 1014.9 |
| 20260506101056 | 61 | 211 | 0.0 | 0.0 | 0.00 | 0.00 | 0.00 | 88 | 1015.1 |
| 20260506100553 | 61 | 227 | 0.0 | 0.0 | 0.00 | 0.00 | 0.00 | 88 | 1015.2 |
| 20260506095553 | 61 | 229 | 0.0 | 0.0 | 0.00 | 0.00 | 0.00 | 88 | 1015.2 |
| 20260506095054 | 61 | 240 | 0.0 | 0.0 | 0.00 | 0.00 | 0.00 | 88 | 1015.2 |
| 20260506094608 | 61 | 239 | 0.0 | 0.0 | 0.00 | 0.00 | 0.00 | 88 | 1015.1 |
| 20260506094055 | 61 | 228 | 0.0 | 0.0 | 0.00 | 0.00 | 0.00 | 88 | 1015.1 |
| 20260506093555 | 61 | 238 | 0.0 | 0.0 | 0.00 | 0.00 | 0.00 | 88 | 1015.2 |
| 20260506093051 | 61 | 243 | 0.0 | 0.0 | 0.00 | 0.00 | 0.00 | 87 | 1015.3 |
| 20260506092551 | 61 | 240 | 0.0 | 0.0 | 0.00 | 0.00 | 0.00 | 87 | 1015.3 |
| 20260506092050 | 61 | 239 | 0.0 | 0.0 | 0.00 | 0.00 | 0.00 | 86 | 1015.2 |
| 20260506091549 | 61 | 240 | 0.0 | 0.0 | 0.00 | 0.00 | 0.00 | 86 | 1015.3 |
| 20260506091049 | 61 | 239 | 0.0 | 0.0 | 0.00 | 0.00 | 0.00 | 86 | 1015.3 |
| 20260506090547 | 61 | 240 | 0.0 | 0.0 | 0.00 | 0.00 | 0.00 | 85 | 1015.4 |
| 20260506090047 | 61 | 242 | 0.0 | 0.0 | 0.00 | 0.00 | 0.00 | 85 | 1015.3 |
| 20260506085547 | 62 | 240 | 0.0 | 0.0 | 0.00 | 0.00 | 0.00 | 85 | 1015.5 |
| 20260506085048 | 62 | 229 | 0.0 | 0.0 | 0.00 | 0.00 | 0.00 | 85 | 1015.4 |
| 20260506084551 | 62 | 225 | 0.0 | 0.0 | 0.00 | 0.00 | 0.00 | 85 | 1015.5 |
| 20260506084047 | 62 | 234 | 0.0 | 0.0 | 0.00 | 0.00 | 0.00 | 85 | 1015.6 |
| 20260506083548 | 62 | 219 | 0.0 | 0.0 | 0.00 | 0.00 | 0.00 | 84 | 1015.7 |
| 20260506083053 | 62 | 222 | 0.0 | 0.0 | 0.00 | 0.00 | 0.00 | 84 | 1015.7 |
| 20260506082549 | 62 | 233 | 0.0 | 0.0 | 0.00 | 0.00 | 0.00 | 84 | 1015.7 |
| 20260506082045 | 62 | 219 | 0.0 | 0.0 | 0.00 | 0.00 | 0.00 | 84 | 1015.7 |
| 20260506081545 | 62 | 219 | 0.0 | 3.0 | 0.00 | 0.00 | 0.00 | 84 | 1015.6 |
| 20260506081046 | 62 | 211 | 0.0 | 3.0 | 0.00 | 0.00 | 0.00 | 84 | 1015.5 |
| 20260506080546 | 62 | 224 | 0.0 | 0.0 | 0.00 | 0.00 | 0.00 | 84 | 1015.6 |
| 20260506073047 | 62 | 221 | 0.0 | 0.0 | 0.00 | 0.00 | 0.00 | 84 | 1015.5 |
| 20260506072545 | 61 | 221 | 0.0 | 1.0 | 0.00 | 0.00 | 0.00 | 84 | 1015.5 |
| 20260506072043 | 61 | 221 | 0.0 | 2.0 | 0.00 | 0.00 | 0.00 | 83 | 1015.4 |
| 20260506071542 | 62 | 221 | 0.0 | 2.0 | 0.00 | 0.00 | 0.00 | 83 | 1015.4 |
| 20260506071042 | 62 | 200 | 0.0 | 1.0 | 0.00 | 0.00 | 0.00 | 83 | 1015.5 |
| 20260506070540 | 62 | 200 | 0.0 | 0.0 | 0.00 | 0.00 | 0.00 | 82 | 1015.5 |
| 20260506062034 | 63 | 203 | 0.0 | 1.0 | 0.00 | 0.00 | 0.00 | 81 | 1016.0 |
| 20260506061534 | 63 | 237 | 0.0 | 1.0 | 0.00 | 0.00 | 0.00 | 81 | 1016.0 |
| 20260506061034 | 63 | 238 | 0.0 | 1.0 | 0.00 | 0.00 | 0.00 | 80 | 1016.0 |
| 20260506060533 | 63 | 238 | 0.0 | 2.0 | 0.00 | 0.00 | 0.00 | 80 | 1016.0 |
| 20260506051028 | 64 | 224 | 2.0 | 6.0 | 0.00 | 0.00 | 0.00 | 80 | 1016.1 |
| 20260506050526 | 64 | 218 | 2.0 | 6.0 | 0.00 | 0.00 | 0.00 | 80 | 1016.1 |
| 20260506045023 | 64 | 186 | 1.0 | 5.0 | 0.00 | 0.00 | 0.00 | 80 | 1016.3 |
| 20260506044534 | 64 | 208 | 2.0 | 5.0 | 0.00 | 0.00 | 0.00 | 80 | 1016.3 |
| 20260506044022 | 64 | 225 | 1.0 | 4.0 | 0.00 | 0.00 | 0.00 | 80 | 1016.4 |
| 20260506043522 | 64 | 205 | 1.0 | 4.0 | 0.00 | 0.00 | 0.00 | 80 | 1016.4 |
| 20260506043024 | 64 | 198 | 1.0 | 6.0 | 0.00 | 0.00 | 0.00 | 80 | 1016.4 |
| 20260506042520 | 64 | 203 | 1.0 | 8.0 | 0.00 | 0.00 | 0.00 | 80 | 1016.4 |
| 20260506042019 | 65 | 195 | 2.0 | 8.0 | 0.00 | 0.00 | 0.00 | 79 | 1016.4 |
| 20260506041520 | 65 | 204 | 1.0 | 6.0 | 0.00 | 0.00 | 0.00 | 79 | 1016.5 |
| 20260506041020 | 65 | 175 | 0.0 | 6.0 | 0.00 | 0.00 | 0.00 | 79 | 1016.6 |
| 20260506040518 | 65 | 223 | 3.0 | 6.0 | 0.00 | 0.00 | 0.00 | 79 | 1016.6 |
| 20260506040015 | 65 | 225 | 2.0 | 4.0 | 0.00 | 0.00 | 0.00 | 79 | 1016.7 |
| 20260506035516 | 65 | 227 | 1.0 | 6.0 | 0.00 | 0.00 | 0.00 | 79 | 1016.6 |
| 20260506035017 | 65 | 238 | 2.0 | 6.0 | 0.00 | 0.00 | 0.00 | 79 | 1016.4 |
| 20260506034514 | 65 | 216 | 1.0 | 6.0 | 0.00 | 0.00 | 0.00 | 78 | 1016.5 |
| 20260506034015 | 65 | 227 | 2.0 | 6.0 | 0.00 | 0.00 | 0.00 | 78 | 1016.4 |
| 20260506033514 | 65 | 200 | 2.0 | 4.0 | 0.00 | 0.00 | 0.00 | 78 | 1016.3 |
| 20260506033015 | 65 | 232 | 1.0 | 6.0 | 0.00 | 0.00 | 0.00 | 78 | 1016.4 |
| 20260506032515 | 65 | 219 | 2.0 | 8.0 | 0.00 | 0.00 | 0.00 | 78 | 1016.3 |
| 20260506032014 | 66 | 208 | 1.0 | 8.0 | 0.00 | 0.00 | 0.00 | 77 | 1016.3 |
| 20260506031514 | 66 | 157 | 1.0 | 6.0 | 0.00 | 0.00 | 0.00 | 77 | 1016.4 |
| 20260506031014 | 66 | 186 | 1.0 | 8.0 | 0.00 | 0.00 | 0.00 | 77 | 1016.5 |
| 20260506030515 | 66 | 225 | 2.0 | 8.0 | 0.00 | 0.00 | 0.00 | 77 | 1016.4 |
| 20260506030013 | 66 | 190 | 2.0 | 7.0 | 0.00 | 0.00 | 0.00 | 76 | 1016.5 |
| 20260506025512 | 66 | 199 | 1.0 | 4.0 | 0.00 | 0.00 | 0.00 | 76 | 1016.6 |
| 20260506025014 | 66 | 205 | 1.0 | 7.0 | 0.00 | 0.00 | 0.00 | 76 | 1016.7 |
| 20260506024518 | 67 | 192 | 3.0 | 7.0 | 0.00 | 0.00 | 0.00 | 76 | 1016.6 |
| 20260506024016 | 67 | 202 | 2.0 | 5.0 | 0.00 | 0.00 | 0.00 | 75 | 1016.7 |
| 20260506023513 | 67 | 196 | 1.0 | 5.0 | 0.00 | 0.00 | 0.00 | 75 | 1016.9 |
| 20260506023017 | 67 | 226 | 0.0 | 5.0 | 0.00 | 0.00 | 0.00 | 75 | 1016.8 |
| 20260506022513 | 67 | 183 | 2.0 | 6.0 | 0.00 | 0.00 | 0.00 | 74 | 1016.7 |
| 20260506022012 | 68 | 194 | 1.0 | 8.0 | 0.00 | 0.00 | 0.00 | 74 | 1016.8 |
| 20260506021512 | 68 | 210 | 4.0 | 9.0 | 0.00 | 0.00 | 0.00 | 74 | 1016.8 |
| 20260506021018 | 68 | 196 | 2.0 | 9.0 | 0.00 | 0.00 | 0.00 | 73 | 1016.7 |
| 20260506020515 | 68 | 161 | 4.0 | 10.0 | 0.00 | 0.00 | 0.00 | 73 | 1016.5 |
| 20260506020011 | 68 | 224 | 5.0 | 9.0 | 0.00 | 0.00 | 0.00 | 73 | 1016.5 |
| 20260506015511 | 68 | 227 | 3.0 | 8.0 | 0.00 | 0.00 | 0.00 | 73 | 1016.5 |
| 20260506015011 | 69 | 219 | 3.0 | 8.0 | 0.00 | 0.00 | 0.00 | 72 | 1016.6 |
| 20260506014514 | 69 | 217 | 2.0 | 8.0 | 0.00 | 0.00 | 0.00 | 72 | 1016.4 |
| 20260506014010 | 69 | 193 | 4.0 | 11.0 | 0.00 | 0.00 | 0.00 | 71 | 1016.3 |
| 20260506013510 | 69 | 209 | 5.0 | 11.0 | 0.00 | 0.00 | 0.00 | 71 | 1016.2 |
| 20260506013011 | 69 | 209 | 4.0 | 11.0 | 0.00 | 0.00 | 0.00 | 71 | 1016.1 |
| 20260506012510 | 69 | 201 | 5.0 | 11.0 | 0.00 | 0.00 | 0.00 | 70 | 1016.0 |
| 20260506012013 | 70 | 187 | 5.0 | 10.0 | 0.00 | 0.00 | 0.00 | 70 | 1015.8 |
| 20260506011530 | 70 | 162 | 2.0 | 12.0 | 0.00 | 0.00 | 0.00 | 69 | 1015.9 |
| 20260506011015 | 70 | 268 | 4.0 | 17.0 | 0.00 | 0.00 | 0.00 | 69 | 1015.8 |
| 20260506010509 | 70 | 199 | 7.0 | 17.0 | 0.00 | 0.00 | 0.00 | 68 | 1015.7 |
| 20260506010009 | 70 | 175 | 6.0 | 12.0 | 0.00 | 0.00 | 0.00 | 67 | 1015.5 |
| 20260506005511 | 71 | 206 | 5.0 | 10.0 | 0.00 | 0.00 | 0.00 | 67 | 1015.5 |
| 20260506005008 | 71 | 203 | 2.0 | 9.0 | 0.00 | 0.00 | 0.00 | 66 | 1015.4 |
| 20260506004520 | 71 | 163 | 3.0 | 12.0 | 0.00 | 0.00 | 0.00 | 66 | 1015.3 |
| 20260506004012 | 71 | 214 | 4.0 | 12.0 | 0.00 | 0.00 | 0.00 | 65 | 1015.3 |
| 20260506003508 | 72 | 205 | 5.0 | 12.0 | 0.00 | 0.00 | 0.00 | 64 | 1015.3 |
| 20260506003009 | 72 | 183 | 4.0 | 10.0 | 0.00 | 0.00 | 0.00 | 64 | 1015.4 |
| 20260506002508 | 72 | 223 | 4.0 | 11.0 | 0.00 | 0.00 | 0.00 | 63 | 1015.3 |
| 20260506002008 | 72 | 162 | 3.0 | 15.0 | 0.00 | 0.00 | 0.00 | 62 | 1015.3 |
| 20260506001508 | 73 | 171 | 4.0 | 15.0 | 0.00 | 0.00 | 0.00 | 61 | 1015.2 |
| 20260506001008 | 73 | 219 | 4.0 | 11.0 | 0.00 | 0.00 | 0.00 | 61 | 1015.2 |
| 20260506000512 | 73 | 213 | 5.0 | 11.0 | 0.00 | 0.00 | 0.00 | 60 | 1015.2 |
| 20260506000006 | 74 | 223 | 4.0 | 14.0 | 0.00 | 0.00 | 0.00 | 60 | 1015.2 |
| 20260505235506 | 74 | 171 | 7.0 | 16.0 | 0.00 | 0.00 | 0.00 | 59 | 1015.2 |
| 20260505235107 | 74 | 181 | 2.0 | 8.0 | 0.00 | 0.00 | 0.00 | 59 | 1015.1 |
| 20260505234508 | 74 | 194 | 5.0 | 13.0 | 0.00 | 0.00 | 0.00 | 58 | 1015.1 |
| 20260505234012 | 75 | 185 | 6.0 | 13.0 | 0.00 | 0.00 | 0.00 | 58 | 1015.2 |
| 20260505233506 | 75 | 212 | 6.0 | 14.0 | 0.00 | 0.00 | 0.00 | 58 | 1015.2 |
| 20260505233005 | 75 | 206 | 7.0 | 12.0 | 0.00 | 0.00 | 0.00 | 57 | 1015.2 |
| 20260505232508 | 75 | 197 | 4.0 | 12.0 | 0.00 | 0.00 | 0.00 | 57 | 1015.1 |
| 20260505232008 | 76 | 155 | 5.0 | 14.0 | 0.00 | 0.00 | 0.00 | 57 | 1015.1 |
| 20260505231505 | 76 | 156 | 5.0 | 14.0 | 0.00 | 0.00 | 0.00 | 57 | 1015.0 |
| 20260505231004 | 76 | 205 | 7.0 | 14.0 | 0.00 | 0.00 | 0.00 | 56 | 1014.9 |
| 20260505230504 | 77 | 360 | 5.0 | 13.0 | 0.00 | 0.00 | 0.00 | 56 | 1014.8 |
| 20260505230006 | 77 | 173 | 4.0 | 13.0 | 0.00 | 0.00 | 0.00 | 55 | 1014.6 |
| 20260505225507 | 77 | 202 | 4.0 | 12.0 | 0.00 | 0.00 | 0.00 | 55 | 1014.7 |
| 20260505225003 | 77 | 156 | 6.0 | 12.0 | 0.00 | 0.00 | 0.00 | 55 | 1014.7 |
| 20260505224502 | 78 | 194 | 4.0 | 13.0 | 0.00 | 0.00 | 0.00 | 54 | 1014.8 |
| 20260505224001 | 78 | 198 | 5.0 | 14.0 | 0.00 | 0.00 | 0.00 | 54 | 1014.9 |
| 20260505223501 | 78 | 200 | 5.0 | 15.0 | 0.00 | 0.00 | 0.00 | 54 | 1014.8 |
| 20260505223002 | 78 | 148 | 5.0 | 15.0 | 0.00 | 0.00 | 0.00 | 53 | 1014.9 |
| 20260505222500 | 79 | 188 | 5.0 | 11.0 | 0.00 | 0.00 | 0.00 | 52 | 1014.9 |
| 20260505222003 | 79 | 206 | 3.0 | 7.0 | 0.00 | 0.00 | 0.00 | 49 | 1014.9 |
| 20260505221502 | 79 | 234 | 3.0 | 8.0 | 0.00 | 0.00 | 0.00 | 49 | 1014.9 |
| 20260505221001 | 79 | 205 | 3.0 | 9.0 | 0.00 | 0.00 | 0.00 | 49 | 1015.0 |
| 20260505220600 | 79 | 201 | 3.0 | 11.0 | 0.00 | 0.00 | 0.00 | 50 | 1015.0 |
| 20260505220501 | 79 | 219 | 4.0 | 11.0 | 0.00 | 0.00 | 0.00 | 49 | 1015.0 |
| 20260505220108 | 79 | 209 | 4.0 | 11.0 | 0.00 | 0.00 | 0.00 | 50 | 1015.0 |
| 20260505215559 | 80 | 167 | 5.0 | 10.0 | 0.00 | 0.00 | 0.00 | 49 | 1015.0 |
| 20260505215100 | 80 | 88 | 4.0 | 8.0 | 0.00 | 0.00 | 0.00 | 48 | 1014.9 |
| 20260505214602 | 80 | 183 | 2.0 | 11.0 | 0.00 | 0.00 | 0.00 | 48 | 1015.0 |
| 20260505214058 | 80 | 139 | 3.0 | 11.0 | 0.00 | 0.00 | 0.00 | 47 | 1015.0 |
| 20260505213558 | 81 | 151 | 5.0 | 10.0 | 0.00 | 0.00 | 0.00 | 47 | 1014.9 |
| 20260505213058 | 81 | 206 | 3.0 | 9.0 | 0.00 | 0.00 | 0.00 | 45 | 1015.0 |
| 20260505212557 | 81 | 215 | 4.0 | 15.0 | 0.00 | 0.00 | 0.00 | 45 | 1014.9 |
| 20260505212058 | 82 | 226 | 8.0 | 14.0 | 0.00 | 0.00 | 0.00 | 43 | 1015.0 |
| 20260505211557 | 82 | 236 | 1.0 | 11.0 | 0.00 | 0.00 | 0.00 | 44 | 1015.1 |
| 20260505211057 | 82 | 222 | 4.0 | 11.0 | 0.00 | 0.00 | 0.00 | 43 | 1015.2 |
| 20260505210556 | 82 | 171 | 5.0 | 11.0 | 0.00 | 0.00 | 0.00 | 42 | 1015.3 |
| 20260505210055 | 81 | 227 | 5.0 | 12.0 | 0.00 | 0.00 | 0.00 | 44 | 1015.2 |
| 20260505205555 | 81 | 215 | 5.0 | 12.0 | 0.00 | 0.00 | 0.00 | 43 | 1015.3 |
| 20260505205054 | 82 | 195 | 6.0 | 11.0 | 0.00 | 0.00 | 0.00 | 40 | 1015.3 |
| 20260505204600 | 83 | 179 | 2.0 | 8.0 | 0.00 | 0.00 | 0.00 | 40 | 1015.3 |
| 20260505204053 | 83 | 214 | 3.0 | 11.0 | 0.00 | 0.00 | 0.00 | 42 | 1015.3 |
| 20260505203556 | 82 | 213 | 4.0 | 11.0 | 0.00 | 0.00 | 0.00 | 43 | 1015.5 |
| 20260505203056 | 82 | 225 | 2.0 | 8.0 | 0.00 | 0.00 | 0.00 | 43 | 1015.3 |
| 20260505202553 | 81 | 244 | 1.0 | 8.0 | 0.00 | 0.00 | 0.00 | 44 | 1015.3 |
| 20260505202052 | 81 | 232 | 3.0 | 11.0 | 0.00 | 0.00 | 0.00 | 43 | 1015.5 |
| 20260505201552 | 81 | 188 | 5.0 | 11.0 | 0.00 | 0.00 | 0.00 | 46 | 1015.5 |
| 20260505201051 | 81 | 157 | 3.0 | 10.0 | 0.00 | 0.00 | 0.00 | 45 | 1015.5 |
| 20260505200551 | 81 | 207 | 6.0 | 10.0 | 0.00 | 0.00 | 0.00 | 45 | 1015.6 |
| 20260505200049 | 81 | 21 | 2.0 | 13.0 | 0.00 | 0.00 | 0.00 | 45 | 1015.6 |
| 20260505195548 | 80 | 157 | 1.0 | 13.0 | 0.00 | 0.00 | 0.00 | 46 | 1015.7 |
| 20260505195049 | 80 | 178 | 3.0 | 12.0 | 0.00 | 0.00 | 0.00 | 46 | 1015.9 |
| 20260505194558 | 81 | 215 | 7.0 | 12.0 | 0.00 | 0.00 | 0.00 | 45 | 1016.0 |
| 20260505194048 | 81 | 202 | 4.0 | 12.0 | 0.00 | 0.00 | 0.00 | 46 | 1015.8 |
| 20260505193547 | 81 | 223 | 1.0 | 12.0 | 0.00 | 0.00 | 0.00 | 45 | 1015.9 |
| 20260505193047 | 82 | 220 | 6.0 | 11.0 | 0.00 | 0.00 | 0.00 | 43 | 1016.2 |
| 20260505192550 | 82 | 219 | 3.0 | 12.0 | 0.00 | 0.00 | 0.00 | 47 | 1016.3 |
| 20260505192047 | 82 | 180 | 5.0 | 11.0 | 0.00 | 0.00 | 0.00 | 44 | 1016.5 |
| 20260505191548 | 82 | 212 | 3.0 | 9.0 | 0.00 | 0.00 | 0.00 | 46 | 1016.5 |
| 20260505191046 | 82 | 192 | 4.0 | 10.0 | 0.00 | 0.00 | 0.00 | 45 | 1016.7 |
| 20260505190546 | 81 | 190 | 4.0 | 9.0 | 0.00 | 0.00 | 0.00 | 46 | 1016.7 |
| 20260505190048 | 81 | 242 | 3.0 | 14.0 | 0.00 | 0.00 | 0.00 | 45 | 1016.7 |
| 20260505185545 | 82 | 220 | 5.0 | 14.0 | 0.00 | 0.00 | 0.00 | 44 | 1016.9 |
| 20260505185047 | 82 | 254 | 1.0 | 11.0 | 0.00 | 0.00 | 0.00 | 45 | 1016.8 |
| 20260505184551 | 82 | 214 | 6.0 | 11.0 | 0.00 | 0.00 | 0.00 | 43 | 1016.9 |
| 20260505184045 | 83 | 205 | 5.0 | 11.0 | 0.00 | 0.00 | 0.00 | 44 | 1016.8 |
| 20260505183547 | 82 | 193 | 1.0 | 9.0 | 0.00 | 0.00 | 0.00 | 45 | 1016.9 |
| 20260505183050 | 82 | 237 | 3.0 | 9.0 | 0.00 | 0.00 | 0.00 | 45 | 1016.8 |
| 20260505182542 | 81 | 261 | 2.0 | 9.0 | 0.00 | 0.00 | 0.00 | 45 | 1016.9 |
| 20260505182041 | 81 | 207 | 2.0 | 10.0 | 0.00 | 0.00 | 0.00 | 43 | 1016.8 |
| 20260505181542 | 81 | 207 | 2.0 | 9.0 | 0.00 | 0.00 | 0.00 | 46 | 1016.7 |
| 20260505181042 | 80 | 239 | 2.0 | 9.0 | 0.00 | 0.00 | 0.00 | 46 | 1016.7 |
| 20260505180540 | 80 | 156 | 3.0 | 11.0 | 0.00 | 0.00 | 0.00 | 44 | 1016.8 |
| 20260505180040 | 80 | 192 | 4.0 | 11.0 | 0.00 | 0.00 | 0.00 | 44 | 1016.8 |
| 20260505175540 | 81 | 166 | 4.0 | 9.0 | 0.00 | 0.00 | 0.00 | 43 | 1017.0 |
| 20260505175041 | 80 | 216 | 4.0 | 10.0 | 0.00 | 0.00 | 0.00 | 44 | 1016.9 |
| 20260505174542 | 81 | 271 | 1.0 | 6.0 | 0.00 | 0.00 | 0.00 | 46 | 1016.9 |
| 20260505174039 | 81 | 300 | 2.0 | 7.0 | 0.00 | 0.00 | 0.00 | 47 | 1017.0 |
| 20260505173539 | 81 | 304 | 1.0 | 7.0 | 0.00 | 0.00 | 0.00 | 45 | 1017.0 |
| 20260505173038 | 80 | 339 | 2.0 | 9.0 | 0.00 | 0.00 | 0.00 | 44 | 1017.0 |
| 20260505172535 | 79 | 221 | 3.0 | 13.0 | 0.00 | 0.00 | 0.00 | 44 | 1017.1 |
| 20260505172035 | 79 | 174 | 4.0 | 13.0 | 0.00 | 0.00 | 0.00 | 48 | 1017.2 |
| 20260505171535 | 78 | 173 | 4.0 | 11.0 | 0.00 | 0.00 | 0.00 | 49 | 1017.3 |
| 20260505171034 | 78 | 275 | 7.0 | 11.0 | 0.00 | 0.00 | 0.00 | 48 | 1017.5 |
| 20260505170534 | 78 | 15 | 0.0 | 8.0 | 0.00 | 0.00 | 0.00 | 53 | 1017.5 |
| 20260505170033 | 78 | 205 | 6.0 | 8.0 | 0.00 | 0.00 | 0.00 | 49 | 1017.6 |
| 20260505165533 | 79 | 225 | 1.0 | 10.0 | 0.00 | 0.00 | 0.00 | 52 | 1017.5 |
| 20260505165132 | 79 | 223 | 5.0 | 10.0 | 0.00 | 0.00 | 0.00 | 51 | 1017.7 |
| 20260505164550 | 79 | 211 | 2.0 | 11.0 | 0.00 | 0.00 | 0.00 | 52 | 1017.8 |
| 20260505164031 | 78 | 216 | 5.0 | 11.0 | 0.00 | 0.00 | 0.00 | 53 | 1017.9 |
| 20260505163530 | 78 | 111 | 4.0 | 12.0 | 0.00 | 0.00 | 0.00 | 52 | 1018.0 |
| 20260505163030 | 79 | 219 | 5.0 | 13.0 | 0.00 | 0.00 | 0.00 | 52 | 1018.0 |
| 20260505162530 | 79 | 186 | 3.0 | 8.0 | 0.00 | 0.00 | 0.00 | 52 | 1018.0 |
| 20260505162029 | 79 | 211 | 3.0 | 9.0 | 0.00 | 0.00 | 0.00 | 52 | 1018.1 |
| 20260505161533 | 78 | 213 | 2.0 | 9.0 | 0.00 | 0.00 | 0.00 | 53 | 1018.1 |
| 20260505161028 | 78 | 272 | 3.0 | 10.0 | 0.00 | 0.00 | 0.00 | 54 | 1018.2 |
| 20260505160528 | 78 | 140 | 3.0 | 10.0 | 0.00 | 0.00 | 0.00 | 54 | 1018.2 |
| 20260505153021 | 76 | 182 | 3.0 | 8.0 | 0.00 | 0.00 | 0.00 | 55 | 1018.3 |
| 20260505152520 | 75 | 215 | 1.0 | 9.0 | 0.00 | 0.00 | 0.00 | 57 | 1018.3 |
| 20260505152019 | 75 | 210 | 6.0 | 9.0 | 0.00 | 0.00 | 0.00 | 55 | 1018.3 |
| 20260505151518 | 75 | 188 | 5.0 | 9.0 | 0.00 | 0.00 | 0.00 | 56 | 1018.3 |
| 20260505151018 | 75 | 165 | 4.0 | 9.0 | 0.00 | 0.00 | 0.00 | 59 | 1018.4 |
| 20260505150517 | 75 | 276 | 3.0 | 8.0 | 0.00 | 0.00 | 0.00 | 60 | 1018.4 |
| 20260505140503 | 71 | 226 | 5.0 | 8.0 | 0.00 | 0.00 | 0.00 | 69 | 1017.9 |
| 20260505124550 | 64 | 255 | 1.0 | 7.0 | 0.00 | 0.00 | 0.00 | 82 | 1018.1 |
| 20260505124044 | 63 | 248 | 1.0 | 5.0 | 0.00 | 0.00 | 0.00 | 84 | 1018.0 |